カタログに戻る

STARLINK-37022

運用中通信SSO
NORAD 68101·PAYLOAD·🇺🇸 United States

打ち上げ Mar 8, 2026 から Vandenberg Space Force Base

Loading…

次のパス (今後24時間)

TLE

最新Source: CelesTrak SupGP

元期: Sep 15, 2026, 03:04 UTC

1 68101C 26044A   26258.12826389 -.00002968  00000+0 -92176-4 0  2587
2 68101  97.2851 217.0754 0001948  90.6535 114.9219 15.33428929    10

AllMySatでSTARLINK-37022をリアルタイム追跡

Download on the App Store